GW5109 Weather Reports


Display with metric or nautical units.
time (UTC)temp
F
wind
direction
speed
MPH
gust
MPH
rain 1hr
in
rain 24hr
in
rain mn
in
humidity
%
barometer
mb
20260508111259 44 263 1.0 2.0 0.00 0.00 0.00 68 1018.5
20260508110756 43 224 1.0 3.0 0.00 0.00 0.00 70 1018.2
20260508110253 42 226 0.0 3.0 0.00 0.00 0.00 74 1018.4
20260508105753 42 226 1.0 2.0 0.00 0.00 0.00 74 1018.5
20260508105250 41 271 2.0 2.0 0.00 0.00 0.00 75 1018.5
20260508104747 41 247 2.0 2.0 0.00 0.00 0.00 75 1018.2
20260508104244 40 188 0.0 2.0 0.00 0.00 0.00 76 1018.4
20260508103741 39 240 2.0 2.0 0.00 0.00 0.00 78 1018.4
20260508103238 39 249 1.0 2.0 0.00 0.00 0.00 79 1018.1
20260508102735 39 285 2.0 2.0 0.00 0.00 0.00 78 1018.2
20260508102233 38 235 1.0 2.0 0.00 0.00 0.00 80 1018.0
20260508101730 38 244 2.0 2.0 0.00 0.00 0.00 81 1017.9
20260508101228 38 262 0.0 2.0 0.00 0.00 0.00 82 1018.0
20260508100725 37 236 1.0 1.0 0.00 0.00 0.00 84 1017.9
20260508100223 37 203 0.0 0.0 0.00 0.00 0.00 84 1018.0
20260508095719 37 196 0.0 0.0 0.00 0.00 0.00 84 1018.0
20260508095217 37 244 1.0 1.0 0.00 0.00 0.00 84 1017.9
20260508094713 36 203 0.0 0.0 0.00 0.00 0.00 86 1017.9
20260508094210 36 204 0.0 0.0 0.00 0.00 0.00 86 1017.8
20260508093707 36 224 0.0 0.0 0.00 0.00 0.00 86 1017.9
20260508093205 36 208 0.0 0.0 0.00 0.00 0.00 86 1017.7
20260508092702 36 213 0.0 0.0 0.00 0.00 0.00 85 1017.8
20260508092200 37 197 0.0 0.0 0.00 0.00 0.00 84 1017.9
20260508091657 37 210 0.0 0.0 0.00 0.00 0.00 84 1017.7
20260508091154 37 188 0.0 0.0 0.00 0.00 0.00 84 1017.7
20260508090652 37 204 0.0 0.0 0.00 0.00 0.00 83 1017.7
20260508090149 37 193 0.0 0.0 0.00 0.00 0.00 83 1017.6
20260508085640 37 199 0.0 0.0 0.00 0.00 0.00 83 1017.4
20260508085138 37 180 0.0 0.0 0.00 0.00 0.00 82 1017.5
20260508084634 37 196 0.0 0.0 0.00 0.00 0.00 82 1017.5
20260508084131 37 205 0.0 0.0 0.00 0.00 0.00 84 1017.5
20260508083628 37 137 0.0 0.0 0.00 0.00 0.00 83 1017.6
20260508083126 37 139 0.0 0.0 0.00 0.00 0.00 83 1017.4
20260508082621 38 188 0.0 0.0 0.00 0.00 0.00 82 1017.5
20260508082119 38 200 0.0 1.0 0.00 0.00 0.00 80 1017.2
20260508081616 38 141 0.0 0.0 0.00 0.00 0.00 79 1017.4
20260508081112 38 146 0.0 1.0 0.00 0.00 0.00 79 1017.4
20260508080610 38 233 0.0 1.0 0.00 0.00 0.00 80 1017.4
20260508080108 39 134 1.0 1.0 0.00 0.00 0.00 79 1017.4
20260508075603 39 156 0.0 1.0 0.00 0.00 0.00 78 1017.4
20260508075101 38 165 0.0 1.0 0.00 0.00 0.00 80 1017.3
20260508074559 38 142 0.0 1.0 0.00 0.00 0.00 80 1017.5
20260508074055 38 168 0.0 0.0 0.00 0.00 0.00 79 1017.3
20260508073552 38 197 0.0 0.0 0.00 0.00 0.00 80 1017.1
20260508073050 38 153 1.0 1.0 0.00 0.00 0.00 81 1017.1
20260508072545 38 154 0.0 0.0 0.00 0.00 0.00 81 1017.1
20260508072043 38 147 0.0 0.0 0.00 0.00 0.00 82 1017.2
20260508071540 38 169 0.0 0.0 0.00 0.00 0.00 81 1017.2
20260508071038 38 169 0.0 0.0 0.00 0.00 0.00 80 1017.3
20260508070535 38 169 0.0 0.0 0.00 0.00 0.00 80 1017.3
20260508070035 38 170 0.0 0.0 0.00 0.00 0.00 80 1017.4
20260508065531 38 170 0.0 0.0 0.00 0.00 0.00 80 1017.2
20260508065030 39 170 0.0 0.0 0.00 0.00 0.00 79 1017.3
20260508064526 40 179 0.0 0.0 0.00 0.00 0.00 77 1017.3
20260508064025 40 233 0.0 0.0 0.00 0.00 0.00 74 1017.3
20260508063521 41 228 0.0 0.0 0.00 0.00 0.00 73 1017.2
20260508063019 41 238 0.0 0.0 0.00 0.00 0.00 72 1017.4
20260508062516 42 233 0.0 2.0 0.00 0.00 0.00 72 1017.3
20260508062013 42 231 0.0 1.0 0.00 0.00 0.00 72 1017.5
20260508061511 42 222 0.0 1.0 0.00 0.00 0.00 72 1017.5
20260508061007 43 232 1.0 1.0 0.00 0.00 0.00 69 1017.4
20260508060504 43 233 0.0 1.0 0.00 0.00 0.00 69 1017.5
20260508060001 43 235 1.0 2.0 0.00 0.00 0.00 70 1017.5
20260508055457 43 235 1.0 1.0 0.00 0.00 0.00 69 1017.6
20260508054953 43 229 0.0 2.0 0.00 0.00 0.00 71 1017.5
20260508054450 43 233 1.0 2.0 0.00 0.00 0.00 69 1017.4
20260508053947 43 240 0.0 2.0 0.00 0.00 0.00 69 1017.6
20260508053444 43 239 0.0 2.0 0.00 0.00 0.00 70 1017.5
20260508052942 43 226 0.0 0.0 0.00 0.00 0.00 71 1017.3
20260508052439 43 236 0.0 1.0 0.00 0.00 0.00 71 1017.3
20260508051936 44 203 0.0 1.0 0.00 0.00 0.00 69 1017.3
20260508051431 44 228 1.0 2.0 0.00 0.00 0.00 69 1017.1
20260508050928 44 215 2.0 2.0 0.00 0.00 0.00 69 1017.0
20260508050424 44 246 2.0 2.0 0.00 0.00 0.00 69 1017.0
20260508045921 44 219 1.0 2.0 0.00 0.00 0.00 70 1017.1
20260508045418 44 232 0.0 0.0 0.00 0.00 0.00 69 1016.8
20260508044916 44 256 1.0 1.0 0.00 0.00 0.00 69 1016.7
20260508044413 44 230 1.0 3.0 0.00 0.00 0.00 69 1017.1
20260508043908 45 228 0.0 2.0 0.00 0.00 0.00 69 1016.6
20260508043406 45 227 2.0 3.0 0.00 0.00 0.00 68 1016.8
20260508042902 45 256 1.0 2.0 0.00 0.00 0.00 68 1016.8
20260508042400 46 258 0.0 1.0 0.00 0.00 0.00 68 1017.0
20260508041856 46 245 1.0 3.0 0.00 0.00 0.00 66 1016.7
20260508041353 46 242 4.0 6.0 0.00 0.00 0.00 67 1016.7
20260508040849 46 209 1.0 3.0 0.00 0.00 0.00 69 1017.0
20260508040347 46 244 2.0 2.0 0.00 0.00 0.00 68 1016.6
20260508035844 47 251 3.0 4.0 0.00 0.01 0.01 66 1016.7
20260508035341 46 244 2.0 4.0 0.00 0.01 0.01 68 1016.7
20260508034838 46 230 1.0 3.0 0.00 0.01 0.01 69 1016.6
20260508034335 46 229 1.0 4.0 0.00 0.01 0.01 69 1016.6
20260508033832 46 229 1.0 3.0 0.00 0.01 0.01 69 1016.5
20260508033330 46 231 2.0 2.0 0.00 0.01 0.01 71 1016.6
20260508032827 47 211 1.0 3.0 0.00 0.01 0.01 71 1016.7
20260508032325 47 219 0.0 1.0 0.00 0.01 0.01 68 1016.6
20260508031821 47 222 0.0 3.0 0.00 0.01 0.01 67 1016.4
20260508031318 47 213 1.0 4.0 0.00 0.01 0.01 67 1016.5
20260508030814 47 209 1.0 4.0 0.00 0.01 0.01 68 1016.5
20260508030312 47 206 1.0 6.0 0.00 0.01 0.01 70 1016.4
20260508025808 46 225 1.0 2.0 0.00 0.01 0.01 71 1016.4
20260508025306 47 217 0.0 1.0 0.00 0.01 0.01 72 1016.2
20260508024801 47 238 2.0 2.0 0.00 0.01 0.01 71 1016.2
20260508024258 47 257 2.0 2.0 0.00 0.01 0.01 70 1016.2
20260508023755 48 205 0.0 2.0 0.00 0.01 0.01 70 1016.3
20260508023253 48 226 2.0 3.0 0.00 0.01 0.01 69 1016.1
20260508022748 48 253 2.0 4.0 0.00 0.01 0.01 68 1016.0
20260508022245 48 226 1.0 1.0 0.00 0.01 0.01 69 1015.9
20260508021742 48 230 2.0 3.0 0.00 0.01 0.01 68 1016.0
20260508021237 49 260 2.0 3.0 0.00 0.01 0.01 68 1015.8
20260508020735 49 233 1.0 3.0 0.00 0.01 0.01 69 1015.8
20260508020232 49 246 2.0 2.0 0.00 0.01 0.01 69 1015.7
20260508015729 49 232 0.0 3.0 0.00 0.01 0.01 69 1015.8
20260508015226 49 240 2.0 2.0 0.00 0.01 0.01 69 1015.4
20260508014723 49 240 2.0 2.0 0.00 0.01 0.01 69 1015.8
20260508014220 49 235 1.0 3.0 0.00 0.01 0.01 69 1015.6
20260508013715 50 234 1.0 2.0 0.00 0.01 0.01 68 1015.4
20260508013212 50 256 2.0 2.0 0.00 0.01 0.01 68 1015.2
20260508012710 49 235 2.0 2.0 0.00 0.01 0.01 71 1015.4
20260508012206 49 244 1.0 2.0 0.00 0.01 0.01 70 1015.0
20260508011705 49 224 0.0 2.0 0.00 0.01 0.01 72 1015.1
20260508011202 49 245 1.0 1.0 0.00 0.01 0.01 71 1015.0
20260508010658 50 256 1.0 1.0 0.00 0.01 0.01 69 1014.8
20260508010156 50 228 0.0 1.0 0.00 0.01 0.01 68 1014.9
20260508005653 50 250 1.0 2.0 0.00 0.01 0.01 69 1015.0
20260508005150 50 280 0.0 2.0 0.00 0.01 0.01 68 1015.1
20260508004646 51 243 1.0 1.0 0.00 0.01 0.01 67 1015.0
20260508004142 51 193 2.0 3.0 0.00 0.01 0.01 66 1014.9
20260508003639 51 237 2.0 2.0 0.00 0.01 0.01 65 1014.6
20260508003136 51 223 1.0 3.0 0.00 0.01 0.01 66 1014.7
20260508002632 51 305 2.0 7.0 0.00 0.01 0.01 65 1014.7
20260508002131 51 215 1.0 2.0 0.00 0.01 0.01 66 1014.7
20260508001625 51 229 1.0 2.0 0.00 0.01 0.01 65 1014.5
20260508001122 52 270 1.0 1.0 0.00 0.01 0.01 66 1014.8
20260508000618 52 186 4.0 4.0 0.00 0.01 0.01 63 1014.5
20260508000115 52 27 2.0 7.0 0.00 0.01 0.01 64 1014.5
20260507235612 52 322 3.0 3.0 0.00 0.01 0.01 64 1014.6
20260507235109 53 322 5.0 7.0 0.00 0.01 0.01 63 1014.5
20260507234606 53 342 1.0 6.0 0.00 0.01 0.01 65 1014.5
20260507234102 53 306 2.0 7.0 0.00 0.01 0.01 66 1014.4
20260507233559 53 269 1.0 2.0 0.00 0.01 0.01 65 1014.4
20260507233058 53 359 5.0 7.0 0.00 0.01 0.01 64 1014.0
20260507232553 53 355 3.0 7.0 0.00 0.01 0.01 63 1014.3
20260507232051 54 251 1.0 4.0 0.00 0.01 0.01 63 1014.3
20260507231547 54 295 4.0 4.0 0.00 0.01 0.01 63 1014.2
20260507231045 54 243 2.0 4.0 0.00 0.01 0.01 63 1014.2
20260507230541 54 316 4.0 7.0 0.00 0.01 0.01 62 1014.0
20260507230038 54 326 3.0 9.0 0.00 0.01 0.01 61 1013.9
20260507225533 54 359 6.0 9.0 0.00 0.01 0.01 63 1014.3
20260507225030 55 9 0.0 1.0 0.00 0.01 0.01 64 1014.0
20260507224525 56 340 4.0 6.0 0.00 0.01 0.01 61 1013.9
20260507224022 55 349 1.0 2.0 0.00 0.01 0.01 63 1013.9
20260507223518 54 246 2.0 4.0 0.00 0.01 0.01 65 1013.8
20260507223016 55 306 1.0 2.0 0.00 0.01 0.01 65 1013.8
20260507222513 55 206 0.0 3.0 0.00 0.01 0.01 67 1013.8
20260507222009 55 5 1.0 6.0 0.00 0.01 0.01 64 1013.6
20260507221505 56 345 3.0 7.0 0.00 0.01 0.01 61 1013.7
20260507221002 58 357 2.0 3.0 0.00 0.01 0.01 59 1013.7
20260507220500 58 141 1.0 4.0 0.00 0.01 0.01 60 1013.4
20260507215956 58 124 0.0 2.0 0.00 0.01 0.01 62 1013.5
20260507215452 57 357 0.0 6.0 0.00 0.01 0.01 59 1013.5
20260507214950 57 336 3.0 4.0 0.00 0.01 0.01 60 1013.3
20260507214448 56 262 3.0 3.0 0.00 0.01 0.01 60 1013.4
20260507213943 58 212 6.0 8.0 0.00 0.01 0.01 57 1013.6
20260507213440 56 321 2.0 9.0 0.00 0.01 0.01 61 1013.4
20260507212937 55 225 7.0 9.0 0.00 0.01 0.01 61 1013.3
20260507212432 57 18 1.0 4.0 0.00 0.01 0.01 63 1013.3
20260507211930 55 21 0.0 4.0 0.00 0.01 0.01 65 1013.3
20260507211426 55 232 4.0 10.0 0.00 0.01 0.01 62 1013.1
20260507210923 56 249 6.0 8.0 0.00 0.01 0.01 62 1013.1
20260507210420 56 248 4.0 7.0 0.00 0.01 0.01 60 1013.1
20260507205917 57 255 2.0 9.0 0.00 0.01 0.01 61 1013.3
20260507205414 57 266 4.0 6.0 0.00 0.01 0.01 61 1013.1
20260507204910 56 309 5.0 8.0 0.00 0.01 0.01 60 1013.1
20260507204406 54 250 4.0 4.0 0.00 0.01 0.01 67 1013.1
20260507203904 54 246 3.0 11.0 0.00 0.01 0.01 66 1012.9
20260507203402 55 280 6.0 7.0 0.00 0.01 0.01 62 1013.2
20260507202858 55 262 3.0 4.0 0.00 0.01 0.01 63 1013.3
20260507202355 54 346 4.0 4.0 0.00 0.01 0.01 67 1013.3
20260507201850 54 302 4.0 8.0 0.00 0.01 0.01 65 1013.2
20260507201346 54 315 5.0 13.0 0.00 0.01 0.01 65 1013.4
20260507200842 56 319 2.0 3.0 0.00 0.01 0.01 64 1013.4
20260507200338 55 283 3.0 8.0 0.00 0.01 0.01 65 1013.5
20260507195835 55 61 2.0 4.0 0.00 0.01 0.01 67 1013.3
20260507195332 55 187 0.0 7.0 0.00 0.01 0.01 66 1013.1
20260507194829 54 254 3.0 8.0 0.00 0.01 0.01 66 1013.4
20260507194325 56 61 1.0 4.0 0.00 0.01 0.01 65 1013.3
20260507193822 56 185 2.0 8.0 0.00 0.01 0.01 64 1013.4
20260507193320 58 247 3.0 4.0 0.00 0.01 0.01 63 1013.4
20260507192815 57 174 2.0 3.0 0.00 0.01 0.01 64 1013.4
20260507192312 56 211 2.0 7.0 0.00 0.01 0.01 64 1013.4
20260507191808 56 261 4.0 14.0 0.00 0.01 0.01 67 1013.6
20260507191305 55 251 4.0 10.0 0.00 0.01 0.01 63 1013.5
20260507190802 58 235 4.0 4.0 0.00 0.01 0.01 62 1013.6
20260507190300 56 333 2.0 9.0 0.00 0.01 0.01 60 1013.6
20260507185758 55 263 2.0 9.0 0.00 0.01 0.01 68 1013.8
20260507185254 55 232 3.0 6.0 0.00 0.01 0.01 65 1013.8
20260507184752 54 290 3.0 6.0 0.00 0.01 0.01 66 1013.9
20260507184250 54 230 2.0 6.0 0.00 0.01 0.01 68 1013.9
20260507183747 54 242 1.0 3.0 0.00 0.01 0.01 66 1014.0
20260507183243 55 251 2.0 8.0 0.00 0.01 0.01 65 1013.9
20260507182741 55 261 6.0 9.0 0.00 0.01 0.01 62 1013.6
20260507182236 54 223 3.0 8.0 0.00 0.01 0.01 64 1013.6
20260507181733 53 283 2.0 7.0 0.00 0.01 0.01 68 1013.6
20260507181229 53 231 2.0 6.0 0.00 0.01 0.01 67 1013.7
20260507180726 53 261 4.0 7.0 0.00 0.01 0.01 68 1013.9
20260507180223 53 5 8.0 10.0 0.00 0.01 0.01 67 1013.9
20260507175718 54 338 6.0 7.0 0.00 0.01 0.01 65 1013.9
20260507175215 53 260 1.0 6.0 0.00 0.01 0.01 70 1013.8
20260507174713 54 348 5.0 9.0 0.00 0.01 0.01 68 1013.8
20260507174211 54 221 4.0 7.0 0.00 0.01 0.01 68 1013.9
20260507173708 53 287 2.0 4.0 0.00 0.01 0.01 70 1013.8
20260507173205 53 340 3.0 6.0 0.00 0.01 0.01 70 1013.9
20260507172701 54 321 2.0 7.0 0.00 0.01 0.01 67 1013.6
20260507172158 54 180 3.0 4.0 0.00 0.01 0.01 68 1013.9
20260507171653 54 16 4.0 6.0 0.00 0.01 0.01 69 1013.9
20260507171150 54 346 3.0 6.0 0.00 0.01 0.01 68 1014.2
20260507170647 55 261 3.0 8.0 0.00 0.01 0.01 68 1014.0
20260507170144 54 43 3.0 7.0 0.00 0.01 0.01 68 1014.0
20260507165639 54 32 1.0 3.0 0.00 0.01 0.01 72 1014.3
20260507165136 53 246 1.0 3.0 0.00 0.01 0.01 71 1014.2
20260507164632 53 259 5.0 9.0 0.00 0.01 0.01 68 1014.3
20260507164129 52 310 2.0 6.0 0.00 0.01 0.01 69 1014.2
20260507163626 53 214 4.0 7.0 0.00 0.01 0.01 68 1014.4
20260507163124 53 225 3.0 4.0 0.00 0.01 0.01 71 1014.3
20260507162619 53 290 1.0 4.0 0.00 0.01 0.01 69 1014.2
20260507162116 53 276 2.0 6.0 0.00 0.01 0.01 72 1014.5
20260507161612 52 177 1.0 2.0 0.00 0.01 0.01 75 1014.2
20260507161109 52 229 4.0 7.0 0.00 0.01 0.01 74 1014.4
20260507160605 51 339 3.0 6.0 0.00 0.01 0.01 74 1014.5
20260507155557 51 331 3.0 7.0 0.00 0.01 0.01 74 1014.7
20260507155054 51 287 1.0 3.0 0.00 0.01 0.01 75 1014.7
20260507154551 51 310 4.0 6.0 0.00 0.01 0.01 75 1014.6
20260507154048 51 6 3.0 4.0 0.00 0.01 0.01 75 1014.5
20260507153545 51 114 0.0 0.0 0.00 0.01 0.01 79 1014.7
20260507153041 51 39 1.0 3.0 0.00 0.01 0.01 76 1014.8
20260507152537 50 308 1.0 3.0 0.00 0.01 0.01 78 1014.6
20260507152034 49 7 2.0 3.0 0.00 0.01 0.01 78 1014.7
20260507151530 50 251 0.0 3.0 0.00 0.01 0.01 77 1014.9
20260507151027 49 105 1.0 2.0 0.00 0.01 0.01 78 1014.5
20260507150524 48 324 1.0 2.0 0.00 0.01 0.01 82 1014.7
20260507150021 48 347 1.0 3.0 0.00 0.01 0.01 80 1014.8
20260507145515 48 12 2.0 2.0 0.00 0.01 0.01 82 1014.8
20260507145014 47 289 2.0 3.0 0.00 0.01 0.01 81 1014.8
20260507144510 48 212 2.0 4.0 0.00 0.01 0.01 81 1014.9
20260507144008 48 307 2.0 4.0 0.00 0.01 0.01 80 1014.8
20260507143505 47 308 3.0 4.0 0.00 0.01 0.01 83 1014.9
20260507143002 47 283 0.0 2.0 0.00 0.01 0.01 82 1014.8
20260507142457 47 296 3.0 4.0 0.00 0.01 0.01 82 1014.9
20260507141954 47 222 2.0 3.0 0.00 0.01 0.01 83 1014.9
20260507141450 47 348 0.0 3.0 0.00 0.01 0.01 83 1015.1
20260507140947 47 135 0.0 0.0 0.00 0.01 0.01 84 1014.9
20260507140444 47 185 0.0 2.0 0.00 0.01 0.01 83 1015.2
20260507135942 47 169 0.0 1.0 0.00 0.01 0.01 85 1015.1
20260507135438 47 305 3.0 4.0 0.00 0.01 0.01 84 1015.0
20260507134936 47 272 1.0 3.0 0.00 0.01 0.01 84 1014.9
20260507134432 47 333 2.0 3.0 0.00 0.01 0.01 85 1015.0
20260507133928 46 293 1.0 2.0 0.00 0.01 0.01 87 1015.0
20260507133424 46 306 0.0 3.0 0.00 0.01 0.01 87 1015.1
20260507132923 46 334 1.0 6.0 0.00 0.01 0.01 87 1015.2
20260507132419 46 330 2.0 3.0 0.00 0.01 0.01 89 1015.2
20260507131915 46 334 0.0 2.0 0.00 0.01 0.01 90 1015.3
20260507131412 46 7 3.0 6.0 0.00 0.01 0.01 89 1015.3
20260507130909 47 255 1.0 2.0 0.00 0.01 0.01 91 1015.4
20260507130406 47 284 1.0 1.0 0.00 0.01 0.01 91 1015.0
20260507125905 46 245 1.0 2.0 0.00 0.01 0.01 91 1015.1
20260507125402 46 121 0.0 1.0 0.00 0.01 0.01 93 1015.2
20260507124900 46 346 1.0 1.0 0.00 0.01 0.01 93 1015.2
20260507124355 46 346 0.0 1.0 0.00 0.01 0.01 93 1015.1
20260507123854 46 315 2.0 2.0 0.00 0.01 0.01 93 1015.3
20260507123351 46 298 0.0 2.0 0.00 0.01 0.01 93 1015.4
20260507122847 46 144 1.0 1.0 0.00 0.01 0.01 93 1015.2
20260507122343 46 258 0.0 2.0 0.00 0.01 0.01 93 1015.3
20260507121839 46 330 1.0 3.0 0.00 0.01 0.01 92 1015.2
20260507121335 46 349 2.0 2.0 0.00 0.01 0.01 93 1015.3
20260507120832 46 260 1.0 2.0 0.00 0.01 0.01 93 1015.1
20260507120328 46 358 1.0 2.0 0.00 0.01 0.01 93 1015.2
20260507115824 46 249 0.0 2.0 0.00 0.01 0.01 93 1015.0
20260507115320 46 343 2.0 3.0 0.00 0.01 0.01 94 1014.8
20260507114816 46 79 0.0 1.0 0.00 0.01 0.01 94 1014.9
20260507114313 46 27 1.0 3.0 0.00 0.01 0.01 95 1015.0
20260507113811 46 293 1.0 1.0 0.00 0.01 0.01 95 1014.9
20260507113308 46 33 0.0 1.0 0.00 0.01 0.01 95 1014.8
20260507112805 46 311 1.0 1.0 0.00 0.01 0.01 96 1014.9
20260507112306 46 329 2.0 3.0 0.00 0.01 0.01 96 1014.8
20260507111800 46 87 2.0 2.0 0.00 0.01 0.01 96 1014.7